Погода в Туре

Погода в Туре : погода сейчас, прогноз погоды и архив. Всё, что Вы хотите узнать о погоде в Туре!

Хотите узнать прогноз погоды в Туре? Тогда Вам сюда: Погода в Туре

Поиск расширенной информации на нашем сайте:

Полезная информация: Мини погрузчик мксм 800 купить - купить мини погрузчики мксм-800.

Другие новости

Новости СМИ2

Главная страница сайта

Новости сайта

03.07.2017

Напоминаем, что на нашем специализированном сайте Метеоцентр.Азия вы можете получить высокодетализированные автоматические прогнозы погоды по пунктам России, СНГ и мира в авиационном формате (включающие направление и скорость ветра, видимость, явления погоды, количество и форму облачности, нижнюю и верхнюю границу облачности).

Рекомендуем: авиатуры в германию

Погода в Туре - сегодня

Время (UTC), дата Ветер
(°,м/с) 
Видим.   Явления Облачность Т
(°С)
Тd
(°С)
f(%) Тe
(°С)
Pmin
(гПа)
dP
(гПа)
Po
(мм)
O2
(г/м3)
Тmin Tmax R s Состояние
почвы
00 18.09.17 080 (В) 20000 м    9/9 1000 м 
[Sc]
+0.2 -1.2 90 +1  1017.6  0.2  745  300  -0.8         
03 18.09.17 100 (В) 20000 м    10/10 600 м кучево-дожд. 
[Cb cap]
+2.8 -1.7 72 +2  1016.8  -0.6  745  297           
06 18.09.17 130 (ЮВ) 20000 м    10/6 600 м кучево-дожд., средняя, верхняя 
[Cb cap|Ac trans|Ci fib]
+7.6 -1.7 52 +6  1015  -1.3  744  292           
09 18.09.17 110 (В) 20000 м    10/10 600 м кучево-дожд. 
[Cb cap]
+8.4 -1.2 51 +8  1014.5  -0.7  743  291           
12 18.09.17 тихо ()   20000 м    10/10 600 м кучево-дожд. 
[Cb cap]
+6.8 -1.1 57 +7  1013.9  -0.5  743  292    +8.4       
15 18.09.17 100 (В) н/о    10/10 600 м кучево-дожд. 
[Cb cap]
+5.6 -2.1 58 +6  1014  743  294           
18 18.09.17 100 (В) н/о    10/10 600 м кучево-дожд. 
[Cb cap]
+4.4 -1.7 65 +5  1014.2  0.2  743  295           
21 18.09.17 120 (ЮВ) н/о    10/10 600 м кучево-дожд. 
[Cb cap]
+3.5 -1.8 68 +4  1014.3  743  296           
00 19.09.17 тихо ()   20000 м    10/10 600 м кучево-дожд. 
[Cb cap]
+2.6 -1.6 74 +3  1014.9  0.5  743  297  +2.2         
03 19.09.17 110 (В) 20000 м    10/10 600 м кучево-дожд. 
[Cb cap]
+5.1 -1.4 63 +6  1015.8  1.1  744  295           
06 19.09.17 090 (В) 20000 м    10/10 600 м кучево-дожд. 
[Cb cap]
+7.2 -1.6 54 +7  1015.8  0.1  744  292           
09 19.09.17 100 (В) 20000 м    6/6 1000 м 
[Sc]
+8.8 -3.1 43 +9  1015.3  -0.3  744  291           
12 19.09.17 040 (СВ) 20000 м    6/6 1000 м 
[Sc]
+5.4 -5.4 46 +5  1016.5  0.8  745  295    +9.3       
15 19.09.17 тихо ()   н/о    ясно 
-0.7 -4.5 75 -1  1017.8  0.8  745  302           
18 19.09.17 тихо ()   н/о    ясно 
-4.1 -5.3 91 -4  1018.9  0.7  746  306           
21 19.09.17 320 (СЗ) н/о    ясно 
-5 -6 93 -5  1019.3  0.4  746  307           
00 20.09.17 350 (С) 20000 м    ясно 
-5.9 -6.7 94 -6  1020.2  0.8  747  308  -6.1         
03 20.09.17 320 (СЗ) 20000 м    ясно 
+1 -3.5 72 1019.8  0.3  747  300           
06 20.09.17 360 (С) 20000 м    ясно 
+7.5 -2.2 50 +7  1017.8  -1.5  746  293           
09 20.09.17 360 (С) 20000 м    ясно 
+9 -4.4 38 +9  1016.5  -1.2  745  291           
12 20.09.17 110 (В) 20000 м    4/0 верхняя 
[Ci sp]
+3.2 -6.3 50 +4  1016.4  -0.5  745  297    +9.2       
15 20.09.17 330 (СЗ) н/о    4/0 верхняя 
[Ci sp]
-0.3 -5 71 1017.2  0.4  745  301           
18 20.09.17 310 (СЗ) н/о    3/0 верхняя 
[Ci fib]
-2.4 -5 82 -2  1016.8  -0.6  744  303           
21 20.09.17 300 (СЗ) н/о    3/0 верхняя 
[Ci fib]
-3.7 -4.8 92 -3  1015.6  -1.1  744  304           
00 21.09.17 250 (З) 20000 м    10/4 1000 м средняя 
[Sc|Ac und]
-3.6 -4.7 92 -5  1015.1  -0.5  743  304  -3.7         
Время (UTC), дата Ветер
(°,м/с) 
Видим.   Явления Облачность Т
(°С)
Тd
(°С)
f(%) Тe
(°С)
Pmin
(гПа)
dP
(гПа)
Po
(мм)
O2
(г/м3)
Тmin Tmax R s Состояние
почвы

Для получения пояснительной информации подведите курсор к названию столбца.

ПОГОДА в Туре - архив

Всё, что Вы хотите узнать о погоде в Туре - удобно и подробно!

Выберите нужную дату (начиная с 1 января 2015* года) и нажмите кнопку "Найти".
Будут отображены архивные сводки погоды по пункту Тура, начиная с указанной даты.


Отображать данные в формате CSV (для использования в таблицах Excel)


Внимание! Наш архив погоды предназначен исключительно для личного некоммерческого использования в познавательных целях. Если Вам необходимы официальные справки о состоянии погоды (для производственных, юридических, коммерческих и т.п. целей), обращайтесь в органы Росгидромета.

*Примечание: данная дата относится к архиву по метеостанциям СССР (Россия, СНГ, Балтия).
Архив по метеостанциям Зарубежной Европы и Азии (кроме Китая) хранится 10 дней, по другим регионам земного шара (Китай, Африка, Америка, Австралия, Океания) - 1 день.

Тура - район местоположения метеостанции


Название, широта, долгота, высота метеостанции:
Тура 64.3°ш. 100.2°д. 168 м над ур. моря [Российская Федерация]

Дополнительная информация

В oтличие oт бoльшинства пoгoдных сайтoв мы публикуем пoдрoбную метеoинфoрмацию в детальнoм прoфессиoнальнoм фoрмате.

Характеристики температуры и влажнoсти вoздуха измеряются на высoте 2 м в тени вдали oт зданий и деревьев.
Скoрoсть ветра измеряется на высoте 10 м (на урoвне рoста челoвека скoрoсть ветра ниже в 1.5-2 раза). Если метеoстанция нахoдится в гoрoде или в лесу, тo скoрoсть ветра занижена на 2-4 м/с пo сравнению с oткрытым местoм. Скoрoсть ветра над акватoриями крупных рек и oзёр, а также на вершинах хoлмoв на 2-5 м/с выше, чем в oбычных услoвиях.
Атмoсфернoе давление в разных тoчках местнoсти мoжет значительнo oтличаться oт давления на метеoстанции, в зависимoсти oт услoвий рельефа (при пoдъёме на 10 м давление пoнижается примернo на 1 мм рт.ст.).